X

Important NEWS



New Hub Active

Miami is our new hub! Old members can request transfer via hr@dlxairways.net

Thank you very much and have nice flight.


Deluxe Airways.

X

Tours



Hello again, we created one nice test tour for all pilots to attend. also this is ment to be testing of our tour system

Available Tours

If you find some issues please inform us.

Thank you very much and have nice flight.


Deluxe Airways.

 METAR AND TAF INFORMATION
ArrayMETAR FOR LOWW
16338935 6 LOWW 291320Z 31011KT 9999 FEW035 FEW035TCU SCT045 18/09 Q1022 NOSIG LOWW 2020-05-29T13:20:00Z 48.12 16.57 18.0 9.0 310 11 6.21 30.177166 TRUE VFR METAR 190.0 LOWW 291250Z 32010KT 290V350 9999 FEW035 FEW035TCU SCT045 17/08 Q1022 NOSIG LOWW 2020-05-29T12:50:00Z 48.12 16.57 17.0 8.0 320 10 6.21 30.177166 TRUE VFR METAR 190.0 LOWW 291220Z 34011KT 300V010 9999 FEW030 FEW030TCU SCT044 17/08 Q1022 NOSIG LOWW 2020-05-29T12:20:00Z 48.12 16.57 17.0 8.0 340 11 6.21 30.177166 TRUE VFR METAR 190.0 LOWW 291150Z 33010KT 290V010 9999 FEW034 SCT048 18/08 Q1023 NOSIG LOWW 2020-05-29T11:50:00Z 48.12 16.57 18.0 8.0 330 10 6.21 30.206694 TRUE VFR METAR 190.0

 AIRPORT MAP

 RUNWAY INFORMATION
Runway 11 Runway length 11483 ft Runway width 148 ft
Runway elevation 575 ft Runway displaced threshold 0 ft Runway heading 116
Runway 29 Runway length 11483 ft Runway width 148 ft
Runway elevation 600 ft Runway displaced threshold 0 ft Runway heading 296
Runway 16 Runway length 11811 ft Runway width 148 ft
Runway elevation 597 ft Runway displaced threshold 2953 ft Runway heading 164
Runway 34 Runway length 11811 ft Runway width 148 ft
Runway elevation 586 ft Runway displaced threshold 0 ft Runway heading 344

 AIRPORT FREQUENCIES
Type APP Name WIEN RADAR Frequency 128.2 MHZ
Type ATIS Name ATIS Frequency 121.725 MHZ
Type CLD Name WIEN CLNC Frequency 122.125 MHZ
Type DIR Name DIRECTOR Frequency 119.8 MHZ
Type GND Name WIEN GND Frequency 121.6 MHZ
Type INFO Name INFO Frequency 118.525 MHZ
Type RMP Name VIENNA ICE Frequency 131.625 MHZ
Type TWR Name WIEN TWR Frequency 119.4 MHZ

 AIRPORT NEAR NAVIGATION AIDS
Type NDB Name Bruck Frequency 408 KHZ
Type VOR-DME Name Fischamend Frequency 110400 KHZ
Type VOR-DME Name Sollenau Frequency 115500 KHZ
Type NDB Name Steinhof Frequency 293 KHZ
Type VOR-DME Name Wagram Frequency 112200 KHZ
Type NDB Name Schwechat Frequency 303 KHZ



Powered by Virtual Airlines Manager [v2.6.2]

Template code change by DeluxeAir